Regional Weather Roundup
Issued by NWS Charleston, WV

Home | Current Version | Previous Version | Graphics & Text | Print | Product List | Glossary On
Versions: 1 2 3 4 5 6 7 8 9 10 11 12 13 14 15 16 17 18 19 20 21 22 23 24 25 26 27 28 29 30 31 32 33 34 35 36 37 38 39 40 41 42 43 44 45
000
ASUS41 KRLX 220210
RWRRLX
West Virginia Regional Weather Roundup
National Weather Service Charleston WV
1000 PM EDT TUE MAR 21 2017

Note: "fair" indicates few or no clouds below 12,000 feet with no
significant weather and/or obstructions to visibility.

WVZ003-220300-
Northern Panhandle of West Virginia

CITY           SKY/WX    TMP DP  RH WIND       PRES   REMARKS
WHEELING       CLOUDY    51  26  37 W10       30.01F
$$

WVZ009-220300-
Northwest West Virginia

CITY           SKY/WX    TMP DP  RH WIND       PRES   REMARKS
PARKERSBURG    CLOUDY    53  35  50 W7        30.09S
$$

WVZ006-220300-
Western West Virginia

CITY           SKY/WX    TMP DP  RH WIND       PRES   REMARKS
HUNTINGTON     CLOUDY    52  40  63 NW3       30.10F
$$

WVZ015-220300-
West Central West Virginia

CITY           SKY/WX    TMP DP  RH WIND       PRES   REMARKS
CHARLESTON     MOCLDY    48  42  80 SW3       30.10R
$$

WVZ022-031-220300-
North Central West Virginia

CITY           SKY/WX    TMP DP  RH WIND       PRES   REMARKS
CLARKSBURG     CLOUDY    51  39  63 W8        30.04R
MORGANTOWN     CLOUDY    53  38  56 NW8       30.02R
$$

WVZ025-035-042-045-220300-
Southern West Virginia

CITY           SKY/WX    TMP DP  RH WIND       PRES   REMARKS
BECKLEY        CLOUDY    44  40  85 N6        30.09R
LOGAN            N/A     48  43  81 CALM      30.09S
BLUEFIELD      CLOUDY    47  42  83 N6        30.09R
LEWISBURG      PTCLDY    43  37  77 CALM      30.08R
$$

WVZ047-220300-
Northern Mountains of West Virginia

CITY           SKY/WX    TMP DP  RH WIND       PRES   REMARKS
ELKINS         CLOUDY    47  39  74 W9G17     30.05R
$$

WVZ052-220300-
Eastern Panhandle of West Virginia

CITY           SKY/WX    TMP DP  RH WIND       PRES   REMARKS
MARTINSBURG    CLOUDY    54  39  57 SW12      29.93F
PETERSBURG     CLOUDY    55  40  57 S6        30.00S
$$




USA.gov is the U.S. government's official web portal to all federal, state and local government web resources and services.